パンスターズ彗星

C/2017 X1 ( PanSTARRS )

English version
Home page
Updated on April 13, 2018

---------------------------------------------------------------------

・ プロフィール

発見日 2017年12月12日
発見光度 20.2等
発見者 Pan-STARRS 1 telescope (Haleakala)

・ 軌道要素

Epoch 2018 June 11.0 TT = JDT 2458280.5
T 2018 June 14.56411 TT                                 MPCW
q   4.6624122            (2000.0)            P               Q
n   0.00562468     Peri.  283.12346     -0.86075806     -0.13149356
a  31.3139341      Node   251.12561     +0.25115680     -0.94998494
e   0.8511074      Incl.   31.31078     -0.44273675     -0.28326322
P 175
From 57 observations 2017 Dec. 12-2018 Mar. 10, mean residual 0".3.

・ 光度変化

        m1 = 9.0 + 5 logΔ + 10.0 log r

---------------------------------------------------------------------

軌道要素はM.P.E.C. 2018-F152に掲載されたものです。
光度グラフはComet for Windowsで作成したものです。

---------------------------------------------------------------------

Copyright(C) Seiichi Yoshida (comet@aerith.net). All rights reserved.